Flag for Marshall Islands Weather past 2 weeks in Kwajalein, Marshall Islands

Now
79 °F

Passing clouds.


Feels Like: 82 °F
Forecast: 79 / 86 °F
Wind: 9 mph from Southwest

Location: Kwajalein / Bucholz

Current Time: Sep 18, 2014 at 2:01:35 AM

Latest Report: Sep 18, 2014 at 1:20 AM


Visibility: 10 mi

Pressure: 29.85 "Hg

Humidity: 84%

Dew point: 74 °F

Location of KwajaleinLocation

Historic Weather in Kwajalein — Graph

°F

Kwajalein temperature yesterday

Maximum temperature yesterday: 86 °F (at 3:40 PM)
Minimum temperature yesterday: 78 °F (at 10:20 AM)
Average temperature yesterday: 83 °F

Past Weeks' High & Low Weather Summary

 TemperatureHumidityPressure
High90 °F (Sep 3, 2:00 PM)89% (Sep 7, 8:40 PM)29.93 "Hg (Sep 7, 8:40 PM)
Low77 °F (Sep 7, 9:40 PM)56% (Sep 10, 3:40 PM)29.72 "Hg (Sep 15, 3:00 PM)
Average84 °F71%29.82 "Hg
* Reported Sep 3 1:00 AM — Sep 18 1:00 AM, Kwajalein, Weather by CustomWeather, © 2014

Note: Actual official high and low records may vary slightly from our data, if they occured in-between our weather recording intervals... More about our weather records

Advertising

Kwajalein weather history for previous 24 hours

 ConditionsComfort  
Time TempWeatherWind HumidityBarometerVisibility
1:00 AM
Sep 18
80 °FPassing clouds.10 mph84%29.86 "Hg10 mi
12:40 AM80 °FMostly cloudy.13 mph84%29.86 "Hg10 mi
12:20 AM81 °FOvercast.9 mph83%29.88 "Hg10 mi
12:00 AM82 °FLight rain. Overcast.No wind80%29.86 "Hg5 mi
11:40 PM
Sep 17
83 °FDrizzle. Overcast.6 mph77%29.86 "Hg7 mi
11:20 PM83 °FPartly cloudy.9 mph75%29.87 "Hg10 mi
11:00 PM83 °FClear.No wind74%29.87 "Hg10 mi
10:40 PM83 °FPassing clouds.3 mph74%29.86 "Hg10 mi
10:20 PM83 °FPartly cloudy.3 mph74%29.86 "Hg10 mi
10:00 PM83 °FPassing clouds.6 mph74%29.86 "Hg10 mi
9:40 PM83 °FPassing clouds.6 mph74%29.85 "Hg10 mi
9:20 PM84 °FClear.7 mph73%29.84 "Hg10 mi
9:00 PM84 °FClear.6 mph73%29.83 "Hg10 mi
8:40 PM84 °FPassing clouds.8 mph73%29.83 "Hg10 mi
8:20 PM84 °FPassing clouds.7 mph72%29.82 "Hg10 mi
8:00 PM84 °FPassing clouds.7 mph72%29.82 "Hg10 mi
7:40 PM84 °FPassing clouds.6 mph72%29.81 "Hg10 mi
7:20 PM84 °FClear.7 mph72%29.81 "Hg10 mi
7:00 PM84 °FPassing clouds.8 mph72%29.80 "Hg10 mi
6:40 PM84 °FScattered clouds.9 mph72%29.79 "Hg10 mi
6:20 PM85 °FScattered clouds.8 mph71%29.79 "Hg10 mi
6:00 PM85 °FScattered clouds.10 mph71%29.78 "Hg10 mi
5:40 PM85 °FScattered clouds.9 mph71%29.77 "Hg10 mi
5:20 PM85 °FScattered clouds.10 mph70%29.77 "Hg10 mi
5:00 PM85 °FSunny.9 mph69%29.78 "Hg10 mi
4:40 PM85 °FScattered clouds.9 mph68%29.78 "Hg10 mi
4:20 PM86 °FScattered clouds.8 mph68%29.79 "Hg10 mi
4:00 PM86 °FSunny.8 mph68%29.80 "Hg10 mi
3:40 PM86 °FScattered clouds.10 mph68%29.79 "Hg10 mi
3:20 PM86 °FScattered clouds.9 mph69%29.79 "Hg10 mi
3:00 PM86 °FSunny.9 mph70%29.79 "Hg10 mi
2:40 PM85 °FScattered clouds.10 mph71%29.79 "Hg10 mi
2:20 PM85 °FScattered clouds.9 mph72%29.80 "Hg10 mi
2:00 PM85 °FPartly sunny.9 mph73%29.81 "Hg10 mi
1:40 PM84 °FPartly sunny.10 mph75%29.82 "Hg10 mi
1:20 PM84 °FLight rain. Mostly cloudy.10 mph76%29.83 "Hg7 mi
1:00 PM84 °FScattered clouds.9 mph77%29.83 "Hg10 mi
12:40 PM83 °FScattered clouds.8 mph78%29.84 "Hg10 mi
12:20 PM83 °FScattered clouds.9 mph79%29.84 "Hg10 mi
12:00 PM82 °FScattered clouds.8 mph80%29.85 "Hg10 mi
11:40 AM81 °FSunny.8 mph83%29.86 "Hg10 mi
11:20 AM80 °FSunny.8 mph84%29.86 "Hg10 mi
11:00 AM79 °FSunny.9 mph88%29.87 "Hg10 mi
10:20 AM78 °FBroken clouds.10 mph88%29.88 "Hg10 mi
10:00 AM78 °FLight rain. Cloudy.8 mph86%29.89 "Hg2 mi
9:40 AM80 °FRain. Cloudy.10 mph83%29.89 "Hg4 mi
9:20 AM80 °FHeavy rain. More clouds than sun.13 mph80%29.89 "Hg2 mi
9:00 AM81 °FRain. Cloudy.21 mph78%29.89 "Hg7 mi
8:40 AM82 °FBroken clouds.10 mph77%29.88 "Hg10 mi
8:20 AM82 °FScattered clouds.10 mph76%29.86 "Hg10 mi
8:00 AM82 °FScattered clouds.12 mph77%29.86 "Hg10 mi
7:40 AM82 °FPartly sunny.13 mph77%29.85 "Hg10 mi
7:20 AM82 °FScattered clouds.10 mph78%29.83 "Hg10 mi
7:00 AM82 °FBroken clouds.10 mph77%29.83 "Hg10 mi
6:20 AM82 °FPassing clouds.12 mph77%29.81 "Hg10 mi
6:00 AM82 °FPassing clouds.13 mph76%29.80 "Hg10 mi
5:40 AM82 °FPassing clouds.12 mph76%29.80 "Hg10 mi
5:20 AM82 °FPassing clouds.10 mph77%29.79 "Hg10 mi
5:00 AM82 °FClear.12 mph77%29.78 "Hg10 mi
4:20 AM82 °FPassing clouds.10 mph77%29.78 "Hg10 mi
4:00 AM82 °FClear.9 mph77%29.78 "Hg10 mi
3:40 AM82 °FPassing clouds.8 mph76%29.77 "Hg10 mi
3:20 AM82 °FPassing clouds.9 mph76%29.77 "Hg10 mi
3:00 AM82 °FPartly cloudy.9 mph76%29.77 "Hg10 mi
2:40 AM82 °FPassing clouds.7 mph76%29.78 "Hg10 mi
2:20 AM82 °FClear.7 mph75%29.78 "Hg10 mi
2:00 AM82 °FClear.6 mph75%29.78 "Hg10 mi
Weather by CustomWeather, © 2014

See weather overviewHow to use our weather pages